Вернуться в каталог

STARLINK-3995

АктивенСвязьVLEO
NORAD 52632·PAYLOAD·🇺🇸 United States

Запущен May 14, 2022 с Cape Canaveral Space Force Station

Loading…

Ближайшие Пролёты (ближайшие 24 часа)

TLE

СвежийSource: CelesTrak SupGP

Эпоха: Sep 15, 2026, 01:48 UTC

1 52632C 22052AL  26258.07548611  .00037998  00000+0  23832-2 0  2587
2 52632  53.1578 138.3072 0001460  86.4747 142.3164 15.08810977    18

Отслеживайте STARLINK-3995 в реальном времени с AllMySat

Download on the App Store